Weather reports worldwide

Advertisment
Guadalajara, Spain (8226): temperature & dewpoint: 13.08.2019 00:00:00 - 19.08.2019 00:00:00 (CEST)Guadalajara, Spain (8226): wind speed: 13.08.2019 00:00:00 - 19.08.2019 00:00:00 (CEST)Guadalajara, Spain (8226): wind direction: 13.08.2019 00:00:00 - 19.08.2019 00:00:00 (CEST)Guadalajara, Spain (8226): reduced air pressure: 13.08.2019 00:00:00 - 19.08.2019 00:00:00 (CEST)Guadalajara, Spain (8226): visibility: 13.08.2019 00:00:00 - 19.08.2019 00:00:00 (CEST)Guadalajara, Spain (8226): precipitation: 13.08.2019 00:00:00 - 19.08.2019 00:00:00 (CEST)
Date & Time tt [°C] td [°C] ff [km/h] ff [kn] dd ppp [hPa] vv [km] rr [mm]
19.08.2019 00:00:00 25,6 2,3 4 2 SSE 1010,6 20 0,0
18.08.2019 23:00:00 27,8 -0,3 4 2 W 1009,6 20 -
18.08.2019 22:00:00 29,5 -2,9 9 5 SW 1008,3 20 0,0
18.08.2019 21:00:00 31,0 -0,7 16 9 SW 1007,3 20 0,0
18.08.2019 20:00:00 32,3 -0,7 15 8 WSW 1006,7 20 -
18.08.2019 19:00:00 33,7 -5,1 21 11 WSW 1006,4 20 0,0
18.08.2019 18:00:00 34,0 -6,7 26 14 WSW 1006,6 20 0,0
18.08.2019 17:00:00 34,4 -4,6 26 14 WSW 1006,7 20 -
18.08.2019 16:00:00 33,6 -0,9 21 11 WSW 1007,0 20 0,0
18.08.2019 15:00:00 33,2 -1,2 26 14 WSW 1007,3 20 0,0
18.08.2019 14:00:00 32,8 4,5 22 12 WSW 1008,0 20 -
18.08.2019 13:00:00 31,3 6,4 21 11 WSW 1009,0 20 0,0
18.08.2019 12:00:00 29,8 6,4 18 10 WSW 1009,7 20 0,0
18.08.2019 11:00:00 27,4 5,6 2 1 SSW 1010,2 20 -
18.08.2019 10:00:00 24,5 4,8 4 2 N 1010,8 20 0,0
18.08.2019 09:00:00 21,9 5,3 4 2 NE 1011,2 20 0,0
18.08.2019 08:00:00 21,7 3,4 9 5 S 1010,7 20 -
18.08.2019 07:00:00 21,1 3,8 9 5 SW 1010,3 20 0,0
18.08.2019 06:00:00 19,4 3,1 2 1 N 1010,9 20 0,0
18.08.2019 05:00:00 20,7 3,0 4 2 SW 1010,5 13 -
18.08.2019 04:00:00 21,4 4,0 2 1 WSW 1010,3 20 0,0
18.08.2019 03:00:00 22,7 2,7 4 2 S 1010,3 20 0,0
18.08.2019 02:00:00 25,4 2,7 5 3 S 1009,9 20 -
18.08.2019 01:00:00 28,1 3,0 9 5 SW 1009,0 20 0,0
18.08.2019 00:00:00 27,4 4,4 8 4 SSW 1009,3 20 0,0
17.08.2019 23:00:00 28,3 4,5 8 4 SSW 1009,0 20 -
17.08.2019 22:00:00 29,9 5,2 8 4 SSW 1008,4 20 0,0
17.08.2019 21:00:00 33,1 5,6 8 4 WSW 1007,0 20 0,0
17.08.2019 20:00:00 35,0 5,4 11 6 W 1006,6 20 -
17.08.2019 19:00:00 35,7 6,0 18 10 W 1006,8 20 0,0
17.08.2019 18:00:00 36,1 5,4 13 7 WSW 1007,2 20 0,0
17.08.2019 17:00:00 35,6 5,0 21 11 SW 1007,9 20 -
17.08.2019 16:00:00 35,6 5,9 15 8 WSW 1008,4 20 0,0
17.08.2019 15:00:00 34,9 6,2 16 9 WSW 1009,2 20 0,0
17.08.2019 14:00:00 34,3 6,6 16 9 WSW 1009,9 20 -
17.08.2019 13:00:00 33,4 8,8 8 4 WSW 1010,7 20 0,0
17.08.2019 12:00:00 31,1 11,0 5 3 NW 1011,7 20 0,0
17.08.2019 11:00:00 28,4 11,5 5 3 NW 1012,6 20 -
17.08.2019 10:00:00 24,7 10,2 5 3 NNE 1013,6 20 0,0
17.08.2019 09:00:00 23,3 9,3 4 2 NNW 1014,0 20 0,0
17.08.2019 08:00:00 20,0 8,0 4 2 SE 1014,7 20 -
17.08.2019 07:00:00 21,0 8,3 2 1 SW 1014,2 20 0,0
17.08.2019 06:00:00 21,4 7,2 4 2 NE 1013,5 20 0,0
17.08.2019 05:00:00 23,0 7,1 4 2 N 1013,3 20 -
17.08.2019 04:00:00 23,5 7,1 5 3 NE 1013,0 20 0,0
17.08.2019 03:00:00 23,5 7,1 5 3 ENE 1012,9 20 0,0
17.08.2019 02:00:00 24,0 7,2 5 3 SW 1012,9 20 -
17.08.2019 01:00:00 25,7 6,8 2 1 NNW 1012,3 20 0,0
17.08.2019 00:00:00 27,6 6,4 8 4 S 1011,6 20 0,0
16.08.2019 23:00:00 28,9 6,3 8 4 SSW 1011,1 20 -
16.08.2019 22:00:00 29,6 6,3 8 4 S 1010,6 20 0,0
16.08.2019 21:00:00 32,8 5,4 9 5 SW 1009,3 20 0,0
16.08.2019 20:00:00 34,4 7,4 8 4 WSW 1008,8 20 -
16.08.2019 19:00:00 34,9 7,8 11 6 WSW 1008,7 20 0,0
16.08.2019 18:00:00 35,4 7,5 13 7 WSW 1009,0 20 0,0
16.08.2019 17:00:00 35,0 7,9 9 5 SW 1009,6 20 -
16.08.2019 16:00:00 34,7 8,4 13 7 W 1010,2 20 0,0
16.08.2019 15:00:00 33,9 10,5 13 7 WSW 1010,9 20 0,0
16.08.2019 14:00:00 32,4 13,1 8 4 N 1011,9 20 -
16.08.2019 13:00:00 30,5 13,3 5 3 WNW 1012,9 20 0,0
16.08.2019 12:00:00 28,7 13,4 5 3 W 1014,0 20 0,0
16.08.2019 11:00:00 27,0 13,4 4 2 W 1014,6 19 -
16.08.2019 10:00:00 23,3 12,0 5 3 N 1015,9 20 0,0
16.08.2019 09:00:00 22,0 12,0 4 2 N 1016,1 20 0,0
16.08.2019 08:00:00 19,1 10,9 4 2 E 1016,8 20 -
16.08.2019 07:00:00 19,2 11,0 4 2 ENE 1016,2 20 0,0
16.08.2019 06:00:00 19,8 10,5 5 3 E 1016,1 20 0,0
16.08.2019 05:00:00 21,6 11,0 5 3 NE 1015,7 20 -
16.08.2019 04:00:00 22,0 10,8 9 5 NE 1015,7 20 0,0
16.08.2019 03:00:00 22,6 10,7 13 7 NNE 1015,7 20 0,0
16.08.2019 02:00:00 23,2 10,6 9 5 NE 1015,8 20 -
16.08.2019 01:00:00 24,0 10,6 9 5 NNE 1015,7 20 0,0
16.08.2019 00:00:00 25,3 10,7 13 7 NE 1015,0 20 0,0
15.08.2019 23:00:00 28,4 10,6 18 10 ENE 1013,6 19 -
15.08.2019 22:00:00 31,0 8,1 8 4 NNE 1011,9 20 0,0
15.08.2019 21:00:00 32,4 8,6 5 3 NNW 1011,0 20 0,0
15.08.2019 20:00:00 34,1 8,0 8 4 WSW 1010,4 20 -
15.08.2019 19:00:00 34,5 8,3 8 4 SW 1010,4 20 0,0
15.08.2019 18:00:00 35,1 8,0 5 3 W 1010,4 20 0,0
15.08.2019 17:00:00 34,6 8,4 8 4 W 1011,0 20 -
15.08.2019 16:00:00 33,7 8,3 8 4 NE 1011,9 20 0,0
15.08.2019 15:00:00 32,9 8,4 5 3 NNW 1012,5 20 0,0
15.08.2019 14:00:00 32,7 8,2 5 3 SW 1013,1 20 -
15.08.2019 13:00:00 31,5 10,2 4 2 SW 1013,8 20 0,0
15.08.2019 12:00:00 29,4 6,7 5 3 NNE 1015,1 20 0,0
15.08.2019 11:00:00 26,2 7,7 4 2 NNE 1016,2 20 -
15.08.2019 10:00:00 23,2 6,9 5 3 N 1016,9 20 0,0
15.08.2019 09:00:00 19,8 5,8 4 2 NNW 1018,0 20 0,0
15.08.2019 08:00:00 17,0 4,6 2 1 NE 1018,3 20 -
15.08.2019 07:00:00 16,9 3,9 4 2 E 1017,7 20 0,0
15.08.2019 06:00:00 17,7 3,2 5 3 E 1017,0 20 0,0
15.08.2019 05:00:00 18,4 2,6 2 1 ENE 1017,0 20 -
15.08.2019 04:00:00 19,4 3,1 4 2 N 1016,8 20 0,0
15.08.2019 03:00:00 21,2 2,9 4 2 NNE 1016,4 19 0,0
15.08.2019 02:00:00 22,1 2,7 9 5 ENE 1016,4 20 -
15.08.2019 01:00:00 22,3 3,4 2 1 ESE 1016,3 20 0,0
15.08.2019 00:00:00 23,9 3,8 4 2 N 1016,0 20 0,0
14.08.2019 23:00:00 25,1 3,7 4 2 NNW 1015,4 20 -
14.08.2019 22:00:00 27,0 4,7 8 4 S 1014,2 20 0,0
14.08.2019 21:00:00 30,4 4,2 5 3 SSW 1012,7 20 0,0
14.08.2019 20:00:00 32,3 3,3 5 3 WSW 1012,1 20 -
14.08.2019 19:00:00 32,8 3,7 9 5 SSW 1012,0 20 0,0
14.08.2019 18:00:00 32,7 3,6 5 3 SW 1012,4 20 0,0
14.08.2019 17:00:00 32,4 3,3 5 3 WSW 1013,0 20 -
14.08.2019 16:00:00 31,8 3,7 5 3 NNE 1013,7 20 0,0
14.08.2019 15:00:00 30,3 3,3 8 4 E 1014,7 20 0,0
14.08.2019 14:00:00 29,0 3,0 9 5 NW 1015,5 20 -
14.08.2019 13:00:00 27,4 4,4 5 3 NW 1016,7 20 0,0
14.08.2019 12:00:00 26,1 8,1 5 3 W 1017,2 20 0,0
14.08.2019 11:00:00 23,4 10,1 2 1 W 1017,9 20 -
14.08.2019 10:00:00 19,8 6,9 5 3 N 1019,1 20 0,0
14.08.2019 09:00:00 17,9 6,4 2 1 NNW 1019,3 20 0,0
14.08.2019 08:00:00 14,4 4,7 5 3 NE 1020,2 20 -
14.08.2019 07:00:00 14,5 4,5 4 2 N 1019,8 20 0,0
14.08.2019 06:00:00 15,3 4,3 4 2 NE 1019,5 20 0,0
14.08.2019 05:00:00 15,4 3,8 4 2 ENE 1019,6 20 -
14.08.2019 04:00:00 16,6 3,6 4 2 E 1019,2 20 0,0
14.08.2019 03:00:00 18,2 3,6 2 1 N 1018,7 20 0,0
14.08.2019 02:00:00 19,6 3,7 9 5 NNE 1018,3 20 -
14.08.2019 01:00:00 20,9 0,1 9 5 NE 1017,6 20 0,0
14.08.2019 00:00:00 21,6 -1,7 11 6 ENE 1017,2 20 0,0
13.08.2019 23:00:00 22,7 -0,8 11 6 ENE 1016,6 20 -
13.08.2019 22:00:00 24,8 -0,4 5 3 NE 1015,2 20 0,0
13.08.2019 21:00:00 27,4 0,2 5 3 NW 1013,6 20 0,0
13.08.2019 20:00:00 29,2 1,6 5 3 W 1012,9 20 -
13.08.2019 19:00:00 29,6 2,8 9 5 SW 1012,7 20 0,0
13.08.2019 18:00:00 29,3 2,5 5 3 WSW 1013,0 20 0,0
13.08.2019 17:00:00 28,7 3,5 8 4 NW 1013,6 20 -
13.08.2019 16:00:00 28,6 4,8 8 4 WNW 1014,1 20 0,0
13.08.2019 15:00:00 27,0 5,3 5 3 NNW 1015,0 20 0,0
13.08.2019 14:00:00 26,5 9,4 5 3 W 1015,6 20 -
13.08.2019 13:00:00 24,1 9,7 8 4 N 1016,9 20 0,0
13.08.2019 12:00:00 22,5 6,3 5 3 NNW 1017,7 20 0,0
13.08.2019 11:00:00 20,3 6,2 8 4 N 1018,4 20 -
13.08.2019 10:00:00 17,1 6,0 8 4 NNE 1019,5 20 0,0
13.08.2019 09:00:00 14,3 5,6 8 4 NNE 1020,4 20 0,0
13.08.2019 08:00:00 13,6 5,2 8 4 N 1020,2 20 -
13.08.2019 07:00:00 14,3 5,4 9 5 NE 1019,5 19 0,0
13.08.2019 06:00:00 14,8 6,1 11 6 NE 1019,7 20 0,0
13.08.2019 05:00:00 15,3 6,3 8 4 NE 1019,5 20 -
13.08.2019 04:00:00 16,0 6,1 11 6 NNE 1019,4 20 0,0
13.08.2019 03:00:00 16,5 6,0 13 7 NE 1019,8 20 0,0
13.08.2019 02:00:00 17,2 6,1 9 5 NE 1019,7 19 -
13.08.2019 01:00:00 17,6 5,8 21 11 ENE 1019,0 20 0,0
13.08.2019 00:00:00 18,7 4,1 16 9 NE 1018,6 20 0,0

tt = temperature
td = dewpoint
ff = wind speed
dd = wind direction
ppp = reduced air pressure
vv = visibility
rr = precipitation

Next stations